• în Republica Moldova
  • Lista ţărilor
  • Pe 7 zile
  • Temperatura apei
  • Hartă satelitară
  • Meteo pe hartă
  • Widget-uri
  • user-avatar
    Intrare

    Meteo pe oră la Solden

    Astăzi, 17 Ianuarie, Miercuri

    Timp Temperatura Precipitaţii Vânt Presiune Umiditate
    00:00 -8°C° 0,6 mm 2 m/s 568 mmHg 92%
    01:00 -7°C° 0 mm 1 m/s 568 mmHg 92%
    02:00 -8°C° 0,6 mm 2 m/s 567 mmHg 93%
    03:00 -8°C° 0,6 mm 2 m/s 567 mmHg 93%
    04:00 -8°C° 0,6 mm 2 m/s 567 mmHg 93%
    05:00 -9°C° 0,6 mm 2 m/s 567 mmHg 92%
    06:00 -9°C° 0,6 mm 2 m/s 566 mmHg 92%
    07:00 -10°C° 0 mm 1 m/s 566 mmHg 92%
    08:00 -12°C° 0,3 mm 2 m/s 567 mmHg 89%
    09:00 -12°C° 0,3 mm 3 m/s 567 mmHg 86%
    10:00 -12°C° 0,3 mm 3 m/s 568 mmHg 83%
    11:00 -12°C° 0,5 mm 4 m/s 568 mmHg 82%
    12:00 -12°C° 0,5 mm 4 m/s 569 mmHg 81%
    13:00 -12°C° 0 mm 3 m/s 569 mmHg 79%
    14:00 -13°C° 0,4 mm 3 m/s 570 mmHg 81%
    15:00 -13°C° 0,4 mm 3 m/s 570 mmHg 83%
    16:00 -14°C° 0,4 mm 3 m/s 570 mmHg 85%
    17:00 -14°C° 0,3 mm 3 m/s 571 mmHg 86%
    18:00 -15°C° 0,3 mm 3 m/s 571 mmHg 87%
    19:00 -15°C° 0,3 mm 3 m/s 571 mmHg 88%
    20:00 -15°C° 0,4 mm 3 m/s 572 mmHg 88%
    21:00 -15°C° 0,4 mm 3 m/s 572 mmHg 88%
    22:00 -15°C° 0,4 mm 3 m/s 573 mmHg 88%
    23:00 -15°C° 0,3 mm 3 m/s 573 mmHg 88%

    Mâine, 18 Ianuarie, Joi

    Timp Temperatura Precipitaţii Vânt Presiune Umiditate
    00:00 -14°C° 0,3 mm 2 m/s 573 mmHg 88%
    01:00 -14°C° 0,3 mm 2 m/s 574 mmHg 88%
    02:00 -14°C° 0,2 mm 2 m/s 573 mmHg 87%
    03:00 -14°C° 0,2 mm 2 m/s 573 mmHg 87%
    04:00 -14°C° 0,2 mm 2 m/s 573 mmHg 87%
    05:00 -14°C° 0,1 mm 2 m/s 573 mmHg 86%
    06:00 -14°C° 0,1 mm 2 m/s 573 mmHg 86%
    07:00 -14°C° 0,1 mm 2 m/s 573 mmHg 85%
    08:00 -13°C° 0,2 mm 2 m/s 574 mmHg 85%
    09:00 -10°C° 0,2 mm 2 m/s 574 mmHg 85%
    10:00 -10°C° 0,2 mm 3 m/s 575 mmHg 85%
    11:00 -8°C° 0,4 mm 2 m/s 575 mmHg 85%
    12:00 -6°C° 0,4 mm 2 m/s 575 mmHg 85%
    13:00 -5°C° 0,4 mm 2 m/s 575 mmHg 86%
    14:00 -5°C° 0,3 mm 2 m/s 575 mmHg 87%
    15:00 -5°C° 0,3 mm 2 m/s 575 mmHg 88%
    16:00 -5°C° 0,3 mm 2 m/s 574 mmHg 89%
    17:00 -6°C° 0,2 mm 2 m/s 574 mmHg 89%
    18:00 -6°C° 0,2 mm 2 m/s 574 mmHg 88%
    19:00 -7°C° 0,2 mm 2 m/s 574 mmHg 88%
    20:00 -7°C° 0,1 mm 2 m/s 574 mmHg 88%
    21:00 -6°C° 0,1 mm 2 m/s 574 mmHg 88%
    22:00 -6°C° 0,1 mm 2 m/s 574 mmHg 88%
    23:00 -7°C° 0,1 mm 2 m/s 573 mmHg 87%

    Poimâine, 19 Ianuarie, Vineri

    Timp Temperatura Precipitaţii Vânt Presiune Umiditate
    00:00 -7°C° 0,1 mm 2 m/s 573 mmHg 86%
    01:00 -8°C° 0,1 mm 2 m/s 573 mmHg 86%
    02:00 -7°C° 0,2 mm 2 m/s 573 mmHg 86%
    03:00 -7°C° 0,2 mm 2 m/s 573 mmHg 87%
    04:00 -7°C° 0,2 mm 2 m/s 573 mmHg 87%
    05:00 -7°C° 0,2 mm 2 m/s 573 mmHg 88%
    06:00 -7°C° 0,2 mm 2 m/s 573 mmHg 88%
    07:00 -8°C° 0,2 mm 2 m/s 573 mmHg 89%
    08:00 -7°C° 0,3 mm 2 m/s 573 mmHg 90%
    09:00 -7°C° 0,3 mm 2 m/s 573 mmHg 91%
    10:00 -6°C° 0,3 mm 2 m/s 574 mmHg 91%
    11:00 -6°C° 0,4 mm 2 m/s 574 mmHg 91%
    12:00 -6°C° 0,4 mm 2 m/s 574 mmHg 92%
    13:00 -6°C° 0,4 mm 2 m/s 574 mmHg 92%
    14:00 -6°C° 0,3 mm 2 m/s 574 mmHg 91%
    15:00 -7°C° 0,3 mm 2 m/s 574 mmHg 90%
    16:00 -8°C° 0,3 mm 2 m/s 574 mmHg 89%
    17:00 -9°C° 0,1 mm 2 m/s 573 mmHg 89%
    18:00 -12°C° 0,1 mm 2 m/s 573 mmHg 88%
    19:00 -14°C° 0,1 mm 2 m/s 572 mmHg 87%
    20:00 -15°C° 0 mm 2 m/s 572 mmHg 84%
    21:00 -16°C° 0 mm 2 m/s 571 mmHg 81%
    22:00 -17°C° 0 mm 2 m/s 571 mmHg 78%
    23:00 -16°C° 0 mm 2 m/s 571 mmHg 78%

    20 Ianuarie, Sâmbătă

    Timp Temperatura Precipitaţii Vânt Presiune Umiditate
    00:00 -15°C° 0 mm 2 m/s 572 mmHg 78%
    01:00 -15°C° 0 mm 2 m/s 572 mmHg 78%
    02:00 -15°C° 0,2 mm 2 m/s 572 mmHg 81%
    03:00 -14°C° 0,2 mm 2 m/s 573 mmHg 84%
    04:00 -12°C° 0,2 mm 1 m/s 573 mmHg 87%
    05:00 -12°C° 0,1 mm 1 m/s 573 mmHg 86%
    06:00 -12°C° 0,1 mm 1 m/s 573 mmHg 86%
    07:00 -12°C° 0,1 mm 1 m/s 572 mmHg 86%
    08:00 -12°C° 0,1 mm 1 m/s 573 mmHg 85%
    09:00 -11°C° 0,1 mm 1 m/s 573 mmHg 84%
    10:00 -10°C° 0,1 mm 1 m/s 574 mmHg 83%
    11:00 -10°C° 0,1 mm 1 m/s 574 mmHg 79%
    12:00 -9°C° 0,1 mm 1 m/s 574 mmHg 75%
    13:00 -8°C° 0,1 mm 1 m/s 574 mmHg 70%
    14:00 -9°C° 0,1 mm 1 m/s 573 mmHg 75%
    15:00 -9°C° 0,1 mm 1 m/s 573 mmHg 79%
    16:00 -9°C° 0,1 mm 1 m/s 572 mmHg 84%
    17:00 -10°C° 0,2 mm 1 m/s 572 mmHg 85%
    18:00 -11°C° 0,2 mm 1 m/s 571 mmHg 86%
    19:00 -12°C° 0,2 mm 1 m/s 571 mmHg 87%
    20:00 -12°C° 0,4 mm 1 m/s 571 mmHg 88%
    21:00 -11°C° 0,4 mm 1 m/s 571 mmHg 88%
    22:00 -11°C° 0,4 mm 1 m/s 571 mmHg 89%
    23:00 -13°C° 0,5 mm 2 m/s 572 mmHg 89%

    21 Ianuarie, Duminică

    Timp Temperatura Precipitaţii Vânt Presiune Umiditate
    00:00 -13°C° 0,5 mm 2 m/s 572 mmHg 90%
    01:00 -13°C° 0,5 mm 2 m/s 572 mmHg 90%
    02:00 -13°C° 0,3 mm 2 m/s 573 mmHg 90%
    03:00 -13°C° 0,3 mm 2 m/s 573 mmHg 90%
    04:00 -13°C° 0,3 mm 2 m/s 574 mmHg 89%
    05:00 -14°C° 0 mm 2 m/s 574 mmHg 89%
    06:00 -15°C° 0 mm 2 m/s 574 mmHg 88%
    07:00 -16°C° 0 mm 2 m/s 574 mmHg 87%
    08:00 -16°C° 0 mm 2 m/s 575 mmHg 86%
    09:00 -15°C° 0 mm 2 m/s 575 mmHg 84%
    10:00 -14°C° 0 mm 2 m/s 576 mmHg 82%
    11:00 -13°C° 0 mm 2 m/s 577 mmHg 79%
    12:00 -12°C° 0 mm 2 m/s 578 mmHg 77%
    13:00 -10°C° 0 mm 2 m/s 578 mmHg 74%
    14:00 -10°C° 0,2 mm 2 m/s 578 mmHg 78%
    15:00 -10°C° 0,2 mm 2 m/s 578 mmHg 82%
    16:00 -9°C° 0,2 mm 1 m/s 578 mmHg 85%
    17:00 -9°C° 0,4 mm 1 m/s 578 mmHg 87%
    18:00 -10°C° 0,4 mm 1 m/s 578 mmHg 88%
    19:00 -10°C° 0,4 mm 1 m/s 578 mmHg 90%
    20:00 -12°C° 0,9 mm 2 m/s 578 mmHg 91%
    21:00 -10°C° 0,9 mm 2 m/s 578 mmHg 92%
    22:00 -10°C° 0,9 mm 2 m/s 578 mmHg 93%
    23:00 -9°C° 1,7 mm 2 m/s 579 mmHg 93%

    22 Ianuarie, Luni

    Timp Temperatura Precipitaţii Vânt Presiune Umiditate
    00:00 -9°C° 1,7 mm 2 m/s 579 mmHg 93%
    01:00 -8°C° 1,7 mm 2 m/s 579 mmHg 94%
    02:00 -8°C° 1,4 mm 2 m/s 579 mmHg 94%
    03:00 -8°C° 1,4 mm 2 m/s 579 mmHg 93%
    04:00 -7°C° 1,4 mm 2 m/s 579 mmHg 93%
    05:00 -6°C° 0,7 mm 2 m/s 580 mmHg 92%
    06:00 -6°C° 0,7 mm 2 m/s 580 mmHg 92%
    07:00 -5°C° 0,7 mm 2 m/s 580 mmHg 92%
    08:00 -4°C° 0,4 mm 2 m/s 581 mmHg 92%
    09:00 -4°C° 0,4 mm 2 m/s 581 mmHg 93%
    10:00 -3°C° 0,4 mm 2 m/s 582 mmHg 93%
    11:00 -3°C° 0,2 mm 2 m/s 582 mmHg 94%
    12:00 -2°C° 0,2 mm 2 m/s 583 mmHg 95%
    13:00 -2°C° 0,2 mm 2 m/s 583 mmHg 95%
    14:00 -2°C° 0,2 mm 2 m/s 583 mmHg 95%
    15:00 -3°C° 0,2 mm 2 m/s 583 mmHg 94%
    16:00 -3°C° 0,2 mm 2 m/s 583 mmHg 94%
    17:00 -4°C° 0,3 mm 2 m/s 583 mmHg 92%
    18:00 -4°C° 0,3 mm 2 m/s 583 mmHg 91%
    19:00 -5°C° 0,3 mm 2 m/s 583 mmHg 89%
    20:00 -5°C° 0,1 mm 2 m/s 583 mmHg 88%
    21:00 -5°C° 0,1 mm 2 m/s 583 mmHg 88%
    22:00 -5°C° 0,1 mm 2 m/s 583 mmHg 87%
    23:00 -5°C° 0 mm 2 m/s 583 mmHg 87%
    Arată mai mult